Location: Reutlingen
(48.4911°N, 9.2587°E)
Time: 15:49:22
(UTC+02:00)

ELECTRON R/B - Visible Passes

Search period start: 20 May 2018 00:00
Search period end: 30 May 2018 00:00
Orbit: 285 x 480 km, 82.9° (Epoch: 19 May)

Date Brightness Start Highest point End Pass type
(mag) Time Alt. Az. Time Alt. Az. Time Alt. Az.
20 May 4.8 22:26:29 10° NNW 22:28:54 57° W 22:30:40 16° S visible
21 May 7.4 23:04:17 10° WNW 23:05:11 11° W 23:06:06 10° WSW visible
22 May 4.5 22:06:33 10° NNW 22:09:00 69° W 22:11:25 10° S visible
23 May 7.3 22:43:54 10° WNW 22:45:10 13° W 22:46:25 10° WSW visible
24 May 4.3 21:46:20 10° N 21:48:47 85° W 21:51:14 10° S visible
25 May 7.3 22:23:17 10° NW 22:24:50 15° W 22:26:24 10° SW visible
27 May 7.2 22:02:25 10° NW 22:04:12 18° W 22:06:02 10° SW visible
